Weather History for Ogallala, NE

Change the Weather History Date:

Wednesday, July 30, 2014

  Actual Average Record
Temperature  
Mean Temperature 67 °F -  
Max Temperature 77 °F 89 °F 103 °F (1955)
Min Temperature 57 °F 60 °F 39 °F (1971)
Cooling Degree Days 2    
Growing Degree Days 17 (Base 50)    
Moisture  
Dew Point 57 °F    
Average Humidity 73    
Maximum Humidity 96    
Minimum Humidity 39    
Precipitation  
Precipitation 0.00 in - - ()
Sea Level Pressure  
Sea Level Pressure 30.22 in    
Wind  
Wind Speed 2 mph (SW)    
Max Wind Speed 9 mph    
Max Gust Speed -    
Visibility 10 miles    
Events      
Averages and records for this station are not official NWS values.
T = Trace of Precipitation, MM = Missing Value Source: NWS Daily Summary

Daily Weather History Graph

Daily Weather History Graph

Search for Another Location

Airport:

Trip Planner

Search our weather history database for the weather conditions in past years. The results will help you decide how hot, cold, wet, or windy it might be!

Date:

Astronomy

Jul. 30, 2014 Rise Set
Actual Time 5:40 AM MDT 8:05 PM MDT
Civil Twilight 5:09 AM MDT 8:36 PM MDT
Nautical Twilight 4:31 AM MDT 9:15 PM MDT
Astronomical Twilight 3:47 AM MDT 9:57 PM MDT
Moon 9:16 AM MDT (7/30) 9:46 PM MDT (7/30)
Length of Visible Light 15h 26m
Length of Day
14h 24m
Waxing Crescent, 13% of the Moon is Illuminated
Jul 30
Waxing Crescent
Aug 3
First Quarter
Aug 10
Full
Aug 17
Last Quarter
Aug 25
New

Hourly Weather History & Observations

Time (MDT) Temp. Dew Point Humidity Pressure Visibility Wind Dir Wind Speed Gust Speed Precip Events Conditions
12:15 AM 64.2 °F 60.8 °F 89% 30.22 in 10.0 mi Calm Calm - N/A   Overcast
12:35 AM 63.7 °F 61.0 °F 91% 30.22 in 10.0 mi Calm Calm - N/A   Overcast
12:55 AM 63.7 °F 60.6 °F 90% 30.22 in 10.0 mi Calm Calm - N/A   Overcast
1:15 AM 63.5 °F 60.6 °F 90% 30.21 in 10.0 mi Calm Calm - N/A   Overcast
1:35 AM 63.3 °F 60.8 °F 91% 30.21 in 10.0 mi Calm Calm - N/A   Overcast
2:15 AM 63.0 °F 60.8 °F 93% 30.21 in 10.0 mi Calm Calm - N/A   Overcast
2:35 AM 63.1 °F 60.8 °F 92% 30.20 in 10.0 mi Calm Calm - N/A   Overcast
2:55 AM 63.1 °F 60.4 °F 91% 30.21 in 10.0 mi Calm Calm - N/A   Overcast
3:15 AM 63.0 °F 60.8 °F 93% 30.21 in 10.0 mi Calm Calm - N/A   Overcast
3:35 AM 62.6 °F 60.6 °F 93% 30.21 in 10.0 mi Calm Calm - N/A   Overcast
3:55 AM 62.8 °F 60.4 °F 92% 30.20 in 10.0 mi Calm Calm - N/A   Mostly Cloudy
4:15 AM 62.4 °F 60.3 °F 93% 30.21 in 10.0 mi Calm Calm - N/A   Mostly Cloudy
4:35 AM 61.7 °F 60.4 °F 96% 30.21 in 10.0 mi Calm Calm - N/A   Scattered Clouds
4:55 AM 61.7 °F 60.4 °F 96% 30.21 in 10.0 mi Calm Calm - N/A   Clear
5:15 AM 61.9 °F 60.3 °F 94% 30.22 in 10.0 mi Calm Calm - N/A   Clear
5:35 AM 61.9 °F 60.3 °F 94% 30.22 in 10.0 mi Calm Calm - N/A   Mostly Cloudy
5:55 AM 61.2 °F 59.9 °F 96% 30.22 in 10.0 mi Calm Calm - N/A   Mostly Cloudy
6:15 AM 61.5 °F 59.9 °F 94% 30.23 in 10.0 mi Calm Calm - N/A   Mostly Cloudy
6:35 AM 61.9 °F 60.1 °F 94% 30.23 in 10.0 mi Calm Calm - N/A   Overcast
6:55 AM 63.0 °F 60.6 °F 92% 30.23 in 10.0 mi Calm Calm - N/A   Mostly Cloudy
7:15 AM 63.5 °F 60.8 °F 91% 30.24 in 10.0 mi Calm Calm - N/A   Scattered Clouds
7:35 AM 63.9 °F 61.5 °F 92% 30.24 in 10.0 mi Calm Calm - N/A   Scattered Clouds
7:55 AM 64.6 °F 59.4 °F 83% 30.24 in 10.0 mi Calm Calm - N/A   Clear
8:15 AM 65.5 °F 60.1 °F 83% 30.24 in 10.0 mi WSW 3.5 mph - N/A   Clear
8:35 AM 66.0 °F 59.7 °F 80% 30.25 in 10.0 mi Calm Calm - N/A   Clear
8:55 AM 67.3 °F 60.4 °F 79% 30.24 in 10.0 mi Calm Calm - N/A   Clear
9:15 AM 68.2 °F 60.4 °F 76% 30.24 in 10.0 mi Calm Calm - N/A   Scattered Clouds
9:35 AM 69.1 °F 59.9 °F 72% 30.24 in 10.0 mi Calm Calm - N/A   Scattered Clouds
9:55 AM 71.8 °F 58.3 °F 62% 30.24 in 10.0 mi ESE 6.9 mph - N/A   Mostly Cloudy
10:15 AM 72.5 °F 56.3 °F 57% 30.24 in 10.0 mi SSW 3.5 mph - N/A   Mostly Cloudy
10:35 AM 73.4 °F 57.6 °F 58% 30.24 in 10.0 mi ESE 3.5 mph - N/A   Scattered Clouds
10:55 AM 75.0 °F 54.7 °F 49% 30.24 in 10.0 mi ESE 4.6 mph - N/A   Scattered Clouds
11:15 AM 72.5 °F 54.5 °F 53% 30.24 in 10.0 mi NE 3.5 mph - N/A   Scattered Clouds
11:35 AM 73.2 °F 53.1 °F 49% 30.23 in 10.0 mi SSE 4.6 mph - N/A   Clear
11:55 AM 73.6 °F 53.1 °F 49% 30.23 in 10.0 mi Calm Calm - N/A   Mostly Cloudy
12:15 PM 74.3 °F 53.2 °F 48% 30.23 in 10.0 mi ESE 4.6 mph - N/A   Mostly Cloudy
12:35 PM 75.9 °F 51.4 °F 42% 30.22 in 10.0 mi NNE 5.8 mph - N/A   Mostly Cloudy
12:55 PM 76.6 °F 49.6 °F 39% 30.22 in 10.0 mi SE 4.6 mph - N/A   Scattered Clouds
1:15 PM 75.7 °F 50.0 °F 40% 30.22 in 10.0 mi SE 3.5 mph - N/A   Scattered Clouds
1:35 PM 75.2 °F 55.6 °F 50% 30.22 in 10.0 mi SSW 6.9 mph - N/A   Mostly Cloudy
1:55 PM 75.6 °F 54.3 °F 48% 30.22 in 10.0 mi South 4.6 mph - N/A   Scattered Clouds
2:15 PM 74.7 °F 54.1 °F 49% 30.22 in 10.0 mi SSW 4.6 mph - N/A   Scattered Clouds
2:35 PM 75.4 °F 52.5 °F 45% 30.22 in 10.0 mi Calm Calm - N/A   Scattered Clouds
2:55 PM 75.2 °F 52.0 °F 44% 30.22 in 10.0 mi South 4.6 mph - N/A   Scattered Clouds
3:15 PM 74.7 °F 52.9 °F 46% 30.22 in 10.0 mi Calm Calm - N/A   Scattered Clouds
3:35 PM 74.8 °F 55.8 °F 51% 30.21 in 10.0 mi SW 5.8 mph - N/A   Clear
3:55 PM 74.7 °F 54.5 °F 49% 30.21 in 10.0 mi SSW 5.8 mph - N/A   Scattered Clouds
4:15 PM 74.3 °F 53.4 °F 48% 30.21 in 10.0 mi SW 5.8 mph - N/A   Mostly Cloudy
4:35 PM 74.1 °F 54.3 °F 50% 30.21 in 10.0 mi SW 5.8 mph - N/A   Mostly Cloudy
4:55 PM 74.3 °F 55.2 °F 51% 30.21 in 10.0 mi SW 5.8 mph - N/A   Scattered Clouds
5:15 PM 73.4 °F 54.7 °F 52% 30.21 in 10.0 mi WSW 4.6 mph - N/A   Clear
5:55 PM 72.7 °F 58.6 °F 61% 30.20 in 10.0 mi Calm Calm - N/A   Clear
6:15 PM 72.5 °F 59.2 °F 63% 30.20 in 10.0 mi WSW 3.5 mph - N/A   Clear
6:35 PM 72.9 °F 55.0 °F 53% 30.20 in 10.0 mi SW 3.5 mph - N/A   Clear
6:55 PM 70.0 °F 59.4 °F 69% 30.20 in 10.0 mi West 9.2 mph - N/A   Clear
7:15 PM 68.7 °F 59.2 °F 72% 30.20 in 10.0 mi WSW 8.1 mph - N/A   Clear
7:35 PM 67.8 °F 58.8 °F 73% 30.20 in 10.0 mi WSW 9.2 mph - N/A   Clear
7:55 PM 66.9 °F 57.9 °F 73% 30.20 in 10.0 mi West 6.9 mph - N/A   Clear
8:15 PM 64.8 °F 57.4 °F 77% 30.20 in 10.0 mi West 6.9 mph - N/A   Clear
8:35 PM 61.9 °F 57.4 °F 85% 30.20 in 10.0 mi West 5.8 mph - N/A   Clear
8:55 PM 61.7 °F 56.7 °F 84% 30.20 in 10.0 mi WSW 4.6 mph - N/A   Clear
9:15 PM 59.9 °F 56.8 °F 90% 30.21 in 10.0 mi West 5.8 mph - N/A   Clear
9:35 PM 59.2 °F 56.5 °F 91% 30.21 in 10.0 mi WSW 5.8 mph - N/A   Clear
10:15 PM 59.4 °F 56.5 °F 90% 30.22 in 10.0 mi West 5.8 mph - N/A   Clear
10:35 PM 58.1 °F 55.8 °F 92% 30.22 in 10.0 mi WSW 4.6 mph - N/A   Clear
10:55 PM 58.5 °F 55.9 °F 91% 30.22 in 10.0 mi WSW 4.6 mph - N/A   Clear
11:15 PM 58.3 °F 55.9 °F 92% 30.22 in 10.0 mi West 4.6 mph - N/A   Clear
11:35 PM 57.6 °F 55.9 °F 94% 30.22 in 10.0 mi West 4.6 mph - N/A   Clear